| time (UTC) | temp F | wind direction | speed knots | gust knots | rain 1hr in | rain 24hr in | rain mn in | humidity % | barometer mb |
| 20260505101857 | 52 | 219 | 0.0 | 0.0 | 0.00 | 0.00 | 0.00 | 88 | 1014.7 |
| 20260505101351 | 52 | 219 | 0.0 | 0.0 | 0.00 | 0.00 | 0.00 | 87 | 1014.3 |
| 20260505100848 | 52 | 219 | 0.0 | 0.0 | 0.00 | 0.00 | 0.00 | 87 | 1014.3 |
| 20260505100344 | 52 | 219 | 0.0 | 0.0 | 0.00 | 0.00 | 0.00 | 87 | 1014.7 |
| 20260505095840 | 53 | 219 | 0.0 | 0.0 | 0.00 | 0.00 | 0.00 | 86 | 1014.3 |
| 20260505095338 | 53 | 219 | 0.0 | 0.0 | 0.00 | 0.00 | 0.00 | 86 | 1014.6 |
| 20260505094834 | 53 | 219 | 0.0 | 0.0 | 0.00 | 0.00 | 0.00 | 85 | 1014.7 |
| 20260505094331 | 53 | 219 | 0.0 | 0.0 | 0.00 | 0.00 | 0.00 | 84 | 1014.3 |
| 20260505093826 | 53 | 219 | 0.0 | 0.0 | 0.00 | 0.00 | 0.00 | 84 | 1014.3 |
| 20260505093324 | 53 | 219 | 0.0 | 0.0 | 0.00 | 0.00 | 0.00 | 83 | 1014.1 |
| 20260505092820 | 54 | 219 | 0.0 | 0.0 | 0.00 | 0.00 | 0.00 | 83 | 1014.1 |
| 20260505092319 | 54 | 219 | 0.0 | 0.0 | 0.00 | 0.00 | 0.00 | 82 | 1014.0 |
| 20260505091816 | 54 | 219 | 0.0 | 0.0 | 0.00 | 0.00 | 0.00 | 82 | 1014.1 |
| 20260505091314 | 55 | 218 | 0.0 | 0.0 | 0.00 | 0.00 | 0.00 | 81 | 1014.2 |
| 20260505090812 | 55 | 218 | 0.0 | 0.0 | 0.00 | 0.00 | 0.00 | 80 | 1013.9 |
| 20260505090310 | 55 | 218 | 0.0 | 0.0 | 0.00 | 0.00 | 0.00 | 79 | 1014.0 |
| 20260505085807 | 55 | 218 | 0.0 | 0.0 | 0.00 | 0.00 | 0.00 | 79 | 1013.7 |
| 20260505085305 | 56 | 219 | 0.0 | 0.0 | 0.00 | 0.00 | 0.00 | 78 | 1014.0 |
| 20260505084802 | 56 | 221 | 0.0 | 0.0 | 0.00 | 0.00 | 0.00 | 77 | 1013.8 |
| 20260505084301 | 56 | 214 | 0.0 | 0.0 | 0.00 | 0.00 | 0.00 | 77 | 1013.9 |
| 20260505083757 | 56 | 212 | 0.0 | 0.0 | 0.00 | 0.00 | 0.00 | 77 | 1013.7 |
| 20260505083254 | 56 | 202 | 0.0 | 0.0 | 0.00 | 0.00 | 0.00 | 76 | 1013.7 |
| 20260505082750 | 56 | 218 | 0.0 | 0.0 | 0.00 | 0.00 | 0.00 | 76 | 1013.8 |
| 20260505082248 | 56 | 218 | 0.0 | 0.0 | 0.00 | 0.00 | 0.00 | 75 | 1013.6 |
| 20260505081743 | 57 | 220 | 0.0 | 0.0 | 0.00 | 0.00 | 0.00 | 75 | 1013.6 |
| 20260505081241 | 57 | 218 | 0.0 | 0.0 | 0.00 | 0.00 | 0.00 | 74 | 1013.6 |
| 20260505080738 | 57 | 217 | 0.0 | 0.0 | 0.00 | 0.00 | 0.00 | 73 | 1013.7 |
| 20260505080233 | 57 | 211 | 0.0 | 0.0 | 0.00 | 0.00 | 0.00 | 73 | 1013.5 |
| 20260505075729 | 57 | 216 | 0.0 | 0.0 | 0.00 | 0.00 | 0.00 | 73 | 1013.5 |
| 20260505075226 | 57 | 210 | 0.0 | 0.0 | 0.00 | 0.00 | 0.00 | 72 | 1013.5 |
| 20260505074724 | 58 | 226 | 0.0 | 0.0 | 0.00 | 0.00 | 0.00 | 72 | 1013.5 |
| 20260505074221 | 58 | 216 | 0.0 | 0.0 | 0.00 | 0.00 | 0.00 | 71 | 1013.6 |
| 20260505073718 | 58 | 220 | 0.0 | 0.0 | 0.00 | 0.00 | 0.00 | 71 | 1013.6 |
| 20260505073216 | 58 | 221 | 0.0 | 0.0 | 0.00 | 0.00 | 0.00 | 70 | 1013.6 |
| 20260505072712 | 58 | 218 | 0.0 | 0.0 | 0.00 | 0.00 | 0.00 | 70 | 1013.6 |
| 20260505072208 | 58 | 222 | 0.0 | 0.0 | 0.00 | 0.00 | 0.00 | 70 | 1013.5 |
| 20260505071704 | 58 | 218 | 0.0 | 0.0 | 0.00 | 0.00 | 0.00 | 69 | 1013.6 |
| 20260505071201 | 59 | 219 | 0.0 | 0.0 | 0.00 | 0.00 | 0.00 | 68 | 1013.5 |
| 20260505070659 | 59 | 190 | 0.0 | 0.0 | 0.00 | 0.00 | 0.00 | 68 | 1013.5 |
| 20260505070155 | 59 | 226 | 0.0 | 0.9 | 0.00 | 0.00 | 0.00 | 67 | 1013.4 |
| 20260505065650 | 59 | 211 | 0.0 | 0.0 | 0.00 | 0.00 | 0.00 | 67 | 1013.4 |
| 20260505065148 | 59 | 218 | 0.0 | 0.0 | 0.00 | 0.00 | 0.00 | 67 | 1013.6 |
| 20260505064644 | 59 | 250 | 0.9 | 0.9 | 0.00 | 0.00 | 0.00 | 66 | 1013.6 |
| 20260505064143 | 59 | 217 | 0.0 | 0.0 | 0.00 | 0.00 | 0.00 | 66 | 1013.4 |
| 20260505063640 | 60 | 221 | 0.0 | 0.0 | 0.00 | 0.00 | 0.00 | 65 | 1013.5 |
| 20260505063136 | 60 | 212 | 0.0 | 0.0 | 0.00 | 0.00 | 0.00 | 65 | 1013.6 |
| 20260505062633 | 60 | 222 | 0.0 | 0.0 | 0.00 | 0.00 | 0.00 | 64 | 1013.5 |
| 20260505062130 | 60 | 231 | 0.9 | 0.9 | 0.00 | 0.00 | 0.00 | 64 | 1013.4 |
| 20260505061627 | 60 | 211 | 0.0 | 0.0 | 0.00 | 0.00 | 0.00 | 64 | 1013.6 |
| 20260505061125 | 60 | 202 | 0.0 | 0.0 | 0.00 | 0.00 | 0.00 | 63 | 1013.6 |
| 20260505060622 | 60 | 232 | 0.0 | 0.0 | 0.00 | 0.00 | 0.00 | 63 | 1013.6 |
| 20260505060119 | 60 | 218 | 0.0 | 0.0 | 0.00 | 0.00 | 0.00 | 63 | 1013.8 |
| 20260505055614 | 61 | 199 | 0.9 | 0.9 | 0.00 | 0.00 | 0.00 | 63 | 1013.8 |
| 20260505055111 | 61 | 209 | 0.0 | 0.0 | 0.00 | 0.00 | 0.00 | 62 | 1013.5 |
| 20260505054608 | 61 | 210 | 0.0 | 0.0 | 0.00 | 0.00 | 0.00 | 61 | 1013.7 |
| 20260505054106 | 61 | 200 | 0.9 | 0.9 | 0.00 | 0.00 | 0.00 | 61 | 1013.7 |
| 20260505053603 | 61 | 211 | 0.9 | 0.9 | 0.00 | 0.00 | 0.00 | 61 | 1013.8 |
| 20260505053100 | 61 | 208 | 0.0 | 0.9 | 0.00 | 0.00 | 0.00 | 60 | 1013.6 |
| 20260505052556 | 61 | 209 | 0.0 | 0.0 | 0.00 | 0.00 | 0.00 | 60 | 1013.5 |
| 20260505052054 | 62 | 227 | 0.0 | 0.9 | 0.00 | 0.00 | 0.00 | 59 | 1013.9 |
| 20260505051551 | 62 | 196 | 0.9 | 0.9 | 0.00 | 0.00 | 0.00 | 59 | 1013.8 |
| 20260505051049 | 62 | 216 | 0.0 | 0.0 | 0.00 | 0.00 | 0.00 | 58 | 1013.8 |
| 20260505050547 | 62 | 208 | 0.0 | 0.0 | 0.00 | 0.00 | 0.00 | 57 | 1013.8 |
| 20260505041515 | 62 | 212 | 0.0 | 0.0 | 0.00 | 0.00 | 0.00 | 52 | 1013.8 |
| 20260505041012 | 62 | 212 | 0.0 | 0.0 | 0.00 | 0.00 | 0.00 | 52 | 1013.7 |
| 20260505040509 | 62 | 222 | 0.0 | 0.0 | 0.00 | 0.00 | 0.00 | 51 | 1013.8 |
| 20260505040007 | 62 | 218 | 0.0 | 0.0 | 0.00 | 0.00 | 0.00 | 51 | 1013.8 |
| 20260505035502 | 62 | 212 | 0.0 | 0.0 | 0.00 | 0.00 | 0.00 | 52 | 1013.9 |
| 20260505034959 | 62 | 218 | 0.0 | 0.0 | 0.00 | 0.00 | 0.00 | 52 | 1014.0 |
| 20260505034455 | 62 | 218 | 0.0 | 0.0 | 0.00 | 0.00 | 0.00 | 52 | 1013.7 |
| 20260505033953 | 63 | 228 | 0.0 | 0.0 | 0.00 | 0.00 | 0.00 | 51 | 1014.0 |
| 20260505033449 | 63 | 212 | 0.0 | 0.0 | 0.00 | 0.00 | 0.00 | 51 | 1013.9 |
| 20260505032948 | 63 | 209 | 0.0 | 0.0 | 0.00 | 0.00 | 0.00 | 50 | 1014.0 |
| 20260505032445 | 63 | 214 | 0.0 | 0.0 | 0.00 | 0.00 | 0.00 | 50 | 1014.0 |
| 20260505031941 | 64 | 214 | 0.0 | 0.0 | 0.00 | 0.00 | 0.00 | 50 | 1013.9 |
| 20260505031438 | 64 | 228 | 0.0 | 0.0 | 0.00 | 0.00 | 0.00 | 48 | 1014.0 |
| 20260505030935 | 64 | 221 | 0.0 | 0.0 | 0.00 | 0.00 | 0.00 | 48 | 1013.7 |
| 20260505030431 | 65 | 210 | 0.0 | 0.0 | 0.00 | 0.00 | 0.00 | 48 | 1014.1 |
| 20260505025926 | 65 | 212 | 0.0 | 0.0 | 0.00 | 0.00 | 0.00 | 47 | 1014.0 |
| 20260505025424 | 65 | 219 | 0.0 | 0.0 | 0.00 | 0.00 | 0.00 | 46 | 1013.9 |
| 20260505024923 | 65 | 214 | 0.0 | 0.0 | 0.00 | 0.00 | 0.00 | 47 | 1013.9 |
| 20260505024420 | 66 | 207 | 0.0 | 0.0 | 0.00 | 0.00 | 0.00 | 46 | 1013.8 |
| 20260505023917 | 66 | 202 | 0.9 | 0.9 | 0.00 | 0.00 | 0.00 | 46 | 1014.0 |
| 20260505023414 | 66 | 219 | 0.9 | 0.9 | 0.00 | 0.00 | 0.00 | 45 | 1013.8 |
| 20260505022911 | 66 | 216 | 0.0 | 0.0 | 0.00 | 0.00 | 0.00 | 45 | 1013.6 |
| 20260505022408 | 66 | 213 | 0.0 | 0.0 | 0.00 | 0.00 | 0.00 | 45 | 1013.7 |
| 20260505021905 | 65 | 245 | 0.0 | 0.9 | 0.00 | 0.00 | 0.00 | 45 | 1014.0 |
| 20260505021401 | 65 | 214 | 0.9 | 0.9 | 0.00 | 0.00 | 0.00 | 46 | 1013.8 |
| 20260505020857 | 64 | 206 | 0.0 | 0.0 | 0.00 | 0.00 | 0.00 | 47 | 1013.8 |
| 20260505020353 | 64 | 219 | 0.0 | 0.0 | 0.00 | 0.00 | 0.00 | 49 | 1013.6 |
| 20260505015850 | 63 | 219 | 0.0 | 0.0 | 0.00 | 0.00 | 0.00 | 50 | 1013.4 |
| 20260505015347 | 63 | 220 | 0.0 | 0.0 | 0.00 | 0.00 | 0.00 | 52 | 1013.5 |
| 20260505014845 | 63 | 202 | 0.0 | 0.0 | 0.00 | 0.00 | 0.00 | 51 | 1013.4 |
| 20260505014341 | 64 | 219 | 0.0 | 0.0 | 0.00 | 0.00 | 0.00 | 51 | 1013.5 |
| 20260505013838 | 64 | 216 | 0.0 | 0.0 | 0.00 | 0.00 | 0.00 | 51 | 1013.4 |
| 20260505013335 | 64 | 216 | 0.0 | 0.0 | 0.00 | 0.00 | 0.00 | 50 | 1013.5 |
| 20260505012834 | 64 | 216 | 0.0 | 0.0 | 0.00 | 0.00 | 0.00 | 49 | 1013.4 |
| 20260505012331 | 64 | 216 | 0.0 | 0.0 | 0.00 | 0.00 | 0.00 | 48 | 1013.3 |
| 20260505011827 | 64 | 216 | 0.0 | 0.0 | 0.00 | 0.00 | 0.00 | 47 | 1013.1 |
| 20260505011324 | 65 | 216 | 0.0 | 0.0 | 0.00 | 0.00 | 0.00 | 47 | 1013.3 |
| 20260505010820 | 65 | 216 | 0.0 | 0.0 | 0.00 | 0.00 | 0.00 | 47 | 1013.2 |
| 20260505010316 | 65 | 216 | 0.0 | 0.0 | 0.00 | 0.00 | 0.00 | 45 | 1013.2 |
| 20260505005812 | 66 | 216 | 0.0 | 0.0 | 0.00 | 0.00 | 0.00 | 45 | 1013.1 |
| 20260505005309 | 66 | 216 | 0.0 | 0.0 | 0.00 | 0.00 | 0.00 | 46 | 1012.8 |
| 20260505004807 | 66 | 216 | 0.0 | 0.0 | 0.00 | 0.00 | 0.00 | 44 | 1012.9 |
| 20260505004302 | 67 | 216 | 0.0 | 0.0 | 0.00 | 0.00 | 0.00 | 43 | 1012.9 |
| 20260505003800 | 67 | 216 | 0.0 | 0.0 | 0.00 | 0.00 | 0.00 | 43 | 1012.7 |
| 20260505003258 | 68 | 214 | 0.0 | 0.0 | 0.00 | 0.00 | 0.00 | 43 | 1012.8 |
| 20260505002754 | 68 | 212 | 0.0 | 0.0 | 0.00 | 0.00 | 0.00 | 41 | 1012.6 |
| 20260505002251 | 68 | 212 | 0.0 | 0.0 | 0.00 | 0.00 | 0.00 | 42 | 1012.8 |
| 20260505001749 | 69 | 212 | 0.0 | 0.0 | 0.00 | 0.00 | 0.00 | 41 | 1012.6 |
| 20260505001246 | 70 | 212 | 0.0 | 0.0 | 0.00 | 0.00 | 0.00 | 40 | 1012.4 |
| 20260505000743 | 70 | 212 | 0.0 | 0.0 | 0.00 | 0.00 | 0.00 | 39 | 1012.6 |
| 20260505000241 | 71 | 212 | 0.0 | 0.0 | 0.00 | 0.00 | 0.00 | 40 | 1012.6 |
| 20260504235737 | 72 | 212 | 0.0 | 0.0 | 0.00 | 0.00 | 0.00 | 37 | 1012.5 |
| 20260504235233 | 72 | 180 | 0.0 | 0.0 | 0.00 | 0.00 | 0.00 | 36 | 1012.5 |
| 20260504234731 | 73 | 216 | 0.0 | 0.0 | 0.00 | 0.00 | 0.00 | 35 | 1012.4 |
| 20260504234228 | 73 | 219 | 0.0 | 0.0 | 0.00 | 0.00 | 0.00 | 35 | 1012.4 |
| 20260504233724 | 73 | 221 | 0.0 | 0.0 | 0.00 | 0.00 | 0.00 | 34 | 1012.2 |
| 20260504233220 | 74 | 218 | 0.0 | 0.0 | 0.00 | 0.00 | 0.00 | 33 | 1012.3 |
| 20260504232717 | 74 | 210 | 0.0 | 0.9 | 0.00 | 0.00 | 0.00 | 33 | 1012.2 |
| 20260504232214 | 74 | 211 | 0.0 | 0.0 | 0.00 | 0.00 | 0.00 | 32 | 1012.2 |
| 20260504231711 | 74 | 234 | 0.0 | 0.9 | 0.00 | 0.00 | 0.00 | 34 | 1012.1 |
| 20260504231207 | 75 | 213 | 0.0 | 0.0 | 0.00 | 0.00 | 0.00 | 32 | 1012.1 |
| 20260504230703 | 75 | 249 | 1.7 | 2.6 | 0.00 | 0.00 | 0.00 | 31 | 1012.3 |
| 20260504230202 | 76 | 224 | 0.0 | 0.9 | 0.00 | 0.00 | 0.00 | 31 | 1012.1 |
| 20260504225700 | 76 | 210 | 0.0 | 0.0 | 0.00 | 0.00 | 0.00 | 31 | 1012.1 |
| 20260504225156 | 76 | 241 | 0.0 | 0.9 | 0.00 | 0.00 | 0.00 | 29 | 1012.4 |
| 20260504224653 | 76 | 249 | 0.9 | 0.9 | 0.00 | 0.00 | 0.00 | 30 | 1012.1 |
| 20260504224150 | 77 | 281 | 1.7 | 2.6 | 0.00 | 0.00 | 0.00 | 29 | 1012.1 |
| 20260504223647 | 77 | 212 | 0.0 | 0.0 | 0.00 | 0.00 | 0.00 | 30 | 1012.2 |
| 20260504223142 | 77 | 211 | 0.0 | 0.0 | 0.00 | 0.00 | 0.00 | 30 | 1012.3 |
| 20260504222640 | 78 | 220 | 0.0 | 0.9 | 0.00 | 0.00 | 0.00 | 29 | 1012.2 |
| 20260504222137 | 78 | 23 | 1.7 | 2.6 | 0.00 | 0.00 | 0.00 | 28 | 1012.3 |
| 20260504221634 | 78 | 259 | 0.9 | 0.9 | 0.00 | 0.00 | 0.00 | 29 | 1012.1 |
| 20260504221131 | 78 | 229 | 0.9 | 1.7 | 0.00 | 0.00 | 0.00 | 28 | 1012.2 |
| 20260504220627 | 78 | 10 | 0.9 | 1.7 | 0.00 | 0.00 | 0.00 | 27 | 1012.1 |
| 20260504220125 | 78 | 230 | 0.9 | 0.9 | 0.00 | 0.00 | 0.00 | 29 | 1012.2 |
| 20260504215621 | 78 | 225 | 0.0 | 0.0 | 0.00 | 0.00 | 0.00 | 29 | 1012.1 |
| 20260504215119 | 78 | 297 | 1.7 | 1.7 | 0.00 | 0.00 | 0.00 | 28 | 1012.3 |
| 20260504214614 | 78 | 231 | 0.9 | 0.9 | 0.00 | 0.00 | 0.00 | 27 | 1012.2 |
| 20260504214111 | 78 | 196 | 0.9 | 1.7 | 0.00 | 0.00 | 0.00 | 28 | 1011.9 |
| 20260504213607 | 78 | 236 | 0.0 | 0.9 | 0.00 | 0.00 | 0.00 | 29 | 1012.0 |
| 20260504213104 | 79 | 269 | 0.9 | 1.7 | 0.00 | 0.00 | 0.00 | 27 | 1012.2 |
| 20260504212600 | 78 | 222 | 0.0 | 0.0 | 0.00 | 0.00 | 0.00 | 28 | 1012.4 |
| 20260504212058 | 78 | 218 | 0.0 | 0.0 | 0.00 | 0.00 | 0.00 | 28 | 1012.3 |
| 20260504211555 | 78 | 277 | 2.6 | 2.6 | 0.00 | 0.00 | 0.00 | 25 | 1012.4 |
| 20260504211051 | 78 | 226 | 0.9 | 1.7 | 0.00 | 0.00 | 0.00 | 25 | 1012.0 |
| 20260504210549 | 78 | 238 | 0.0 | 0.9 | 0.00 | 0.00 | 0.00 | 27 | 1012.2 |
| 20260504210045 | 78 | 237 | 1.7 | 1.7 | 0.00 | 0.00 | 0.00 | 26 | 1012.4 |
| 20260504205543 | 78 | 240 | 0.0 | 0.0 | 0.00 | 0.00 | 0.00 | 27 | 1012.3 |
| 20260504205041 | 79 | 219 | 1.7 | 1.7 | 0.00 | 0.00 | 0.00 | 26 | 1012.2 |
| 20260504204538 | 79 | 225 | 0.0 | 0.0 | 0.00 | 0.00 | 0.00 | 28 | 1012.5 |
| 20260504204038 | 78 | 231 | 0.9 | 1.7 | 0.00 | 0.00 | 0.00 | 27 | 1012.5 |
| 20260504203535 | 79 | 199 | 1.7 | 2.6 | 0.00 | 0.00 | 0.00 | 27 | 1012.5 |
| 20260504203032 | 79 | 274 | 0.9 | 0.9 | 0.00 | 0.00 | 0.00 | 27 | 1012.5 |
| 20260504202528 | 80 | 190 | 0.9 | 0.9 | 0.00 | 0.00 | 0.00 | 26 | 1012.6 |
| 20260504202025 | 80 | 211 | 0.0 | 0.0 | 0.00 | 0.00 | 0.00 | 28 | 1012.7 |
| 20260504201522 | 80 | 206 | 0.9 | 1.7 | 0.00 | 0.00 | 0.00 | 27 | 1012.8 |
| 20260504201020 | 80 | 231 | 0.0 | 0.0 | 0.00 | 0.00 | 0.00 | 29 | 1013.0 |
| 20260504200516 | 81 | 201 | 0.9 | 0.9 | 0.00 | 0.00 | 0.00 | 28 | 1012.8 |
| 20260504200013 | 81 | 248 | 0.9 | 0.9 | 0.00 | 0.00 | 0.00 | 28 | 1013.0 |
| 20260504195509 | 80 | 233 | 0.0 | 0.9 | 0.00 | 0.00 | 0.00 | 30 | 1012.9 |
| 20260504195005 | 80 | 172 | 0.0 | 0.9 | 0.00 | 0.00 | 0.00 | 28 | 1012.7 |
| 20260504194502 | 80 | 199 | 0.9 | 0.9 | 0.00 | 0.00 | 0.00 | 28 | 1013.1 |
| 20260504193957 | 80 | 203 | 0.9 | 0.9 | 0.00 | 0.00 | 0.00 | 29 | 1013.0 |
| 20260504193455 | 79 | 229 | 0.9 | 0.9 | 0.00 | 0.00 | 0.00 | 29 | 1013.0 |
| 20260504192953 | 80 | 239 | 0.9 | 1.7 | 0.00 | 0.00 | 0.00 | 26 | 1013.1 |
| 20260504192450 | 80 | 353 | 0.9 | 1.7 | 0.00 | 0.00 | 0.00 | 27 | 1013.2 |
| 20260504191949 | 79 | 209 | 0.0 | 0.0 | 0.00 | 0.00 | 0.00 | 28 | 1013.6 |
| 20260504191447 | 79 | 344 | 1.7 | 1.7 | 0.00 | 0.00 | 0.00 | 28 | 1013.3 |
| 20260504190941 | 79 | 209 | 1.7 | 1.7 | 0.00 | 0.00 | 0.00 | 27 | 1013.6 |
| 20260504190438 | 78 | 240 | 1.7 | 1.7 | 0.00 | 0.00 | 0.00 | 28 | 1013.7 |
| 20260504185934 | 78 | 260 | 1.7 | 1.7 | 0.00 | 0.00 | 0.00 | 28 | 1013.7 |
| 20260504185432 | 77 | 211 | 0.0 | 0.9 | 0.00 | 0.00 | 0.00 | 28 | 1013.8 |
| 20260504184928 | 77 | 213 | 0.0 | 0.0 | 0.00 | 0.00 | 0.00 | 29 | 1013.9 |
| 20260504184424 | 77 | 210 | 0.0 | 0.9 | 0.00 | 0.00 | 0.00 | 32 | 1014.0 |
| 20260504183920 | 77 | 242 | 0.0 | 0.0 | 0.00 | 0.00 | 0.00 | 32 | 1014.0 |
| 20260504183417 | 77 | 256 | 2.6 | 2.6 | 0.00 | 0.00 | 0.00 | 29 | 1013.9 |
| 20260504182915 | 78 | 236 | 0.9 | 0.9 | 0.00 | 0.00 | 0.00 | 29 | 1013.8 |
| 20260504182412 | 78 | 223 | 0.0 | 0.0 | 0.00 | 0.00 | 0.00 | 29 | 1013.8 |
| 20260504181908 | 76 | 220 | 0.9 | 0.9 | 0.00 | 0.00 | 0.00 | 29 | 1014.0 |
| 20260504181406 | 77 | 233 | 0.9 | 0.9 | 0.00 | 0.00 | 0.00 | 32 | 1014.2 |
| 20260504180905 | 77 | 238 | 0.0 | 0.0 | 0.00 | 0.00 | 0.00 | 30 | 1014.1 |
| 20260504180403 | 77 | 220 | 0.0 | 0.0 | 0.00 | 0.00 | 0.00 | 29 | 1014.5 |
| 20260504175901 | 76 | 214 | 0.0 | 0.0 | 0.00 | 0.00 | 0.00 | 32 | 1014.5 |
| 20260504175357 | 75 | 208 | 0.0 | 0.9 | 0.00 | 0.00 | 0.00 | 32 | 1014.5 |
| 20260504174855 | 75 | 226 | 1.7 | 1.7 | 0.00 | 0.00 | 0.00 | 29 | 1014.5 |
| 20260504174352 | 74 | 199 | 0.0 | 0.0 | 0.00 | 0.00 | 0.00 | 33 | 1014.5 |
| 20260504173849 | 74 | 226 | 0.0 | 0.9 | 0.00 | 0.00 | 0.00 | 32 | 1014.3 |
| 20260504173346 | 74 | 220 | 0.0 | 0.0 | 0.00 | 0.00 | 0.00 | 34 | 1014.6 |
| 20260504172843 | 73 | 227 | 0.0 | 0.0 | 0.00 | 0.00 | 0.00 | 35 | 1014.5 |
| 20260504172340 | 73 | 246 | 0.9 | 0.9 | 0.00 | 0.00 | 0.00 | 35 | 1014.6 |
| 20260504171835 | 73 | 221 | 0.0 | 0.9 | 0.00 | 0.00 | 0.00 | 37 | 1014.3 |
| 20260504171333 | 73 | 323 | 2.6 | 4.3 | 0.00 | 0.00 | 0.00 | 36 | 1014.8 |
| 20260504170830 | 72 | 230 | 0.0 | 0.0 | 0.00 | 0.00 | 0.00 | 37 | 1014.8 |
| 20260504170327 | 72 | 218 | 0.0 | 0.0 | 0.00 | 0.00 | 0.00 | 36 | 1014.7 |
| 20260504160245 | 68 | 260 | 0.9 | 1.7 | 0.00 | 0.00 | 0.00 | 42 | 1015.7 |
| 20260504150710 | 64 | 205 | 0.0 | 0.0 | 0.00 | 0.00 | 0.00 | 49 | 1016.0 |
| 20260504150207 | 63 | 219 | 0.0 | 0.0 | 0.00 | 0.00 | 0.00 | 49 | 1016.2 |
| 20260504141136 | 60 | 234 | 0.9 | 0.9 | 0.00 | 0.00 | 0.00 | 57 | 1016.0 |
| 20260504140633 | 60 | 271 | 0.9 | 1.7 | 0.00 | 0.00 | 0.00 | 60 | 1016.1 |
| 20260504140129 | 59 | 214 | 0.0 | 0.0 | 0.00 | 0.00 | 0.00 | 61 | 1016.2 |
| 20260504130557 | 56 | 224 | 0.0 | 0.0 | 0.00 | 0.00 | 0.00 | 69 | 1016.0 |
| 20260504110445 | 46 | 212 | 0.0 | 0.0 | 0.00 | 0.00 | 0.00 | 86 | 1015.6 |